Dauntless Aviation
Greetings, Guest! To participate, [sign up for a free account] or [log in]
Airports Asia Indonesia
WIHH
HLP

Halim Perdanakusuma International Airport

Jakarta, INDONESIA

Airport Info
Edit

Location

Latitude / Longitude: 6°15'59"S / 106°53'27"E
  6°15.996'S / 106°53.46'E
  -6.2666 / 106.8910

Nearby radio navigation aids

AL HALIM PERDANAKUSUMA NDB. 243.5° 9.9nm from AL to field.
HLM HALIM PERDANAKUSUMA VOR/DME on field.

Runway Information

Runway 06 /24

Dimensions: 9843 x 197 ft.
Surface: ASP
 
Runway 06
Runway 24
Latitude: -6.272253 -6.261711
Longitude: 106.878792 106.9018
Elevation: 79 ft. 79 ft.
Runway true heading: 64 244
 

Instrument Procedures

  Aerodrome Chart

IAPs (Instrument Approach Procedures)

  ILS Rwy 24
  VOR Rwy 24
  VOR/DME Rwy 24
  VOR Rwy 06
  NDB Rwy 24

Departure Procedures

  SID 2M Departures
  SID 1H/ 2H Departures
Satellite photo at:
Airport distance calculator
From:
Weather Reports

METAR

WIHH

WIHH 210300Z 00000KT 6000 FEW017 30/23 Q1010 NOSIG
WIII
15.6nm W
WIII 210300Z 23008KT 9999 FEW022CB SCT022 32/24 Q1008 NOSIG RMK CB TO N

TAF

WIHH
TAF WIHH 202300Z 2100/2124 27010KT 5000 HZ FEW017 PROB40 TEMPO 2106/2110 35010KT 3000 -TSRA FEW015CB SCT016 BECMG 2111/2113 00000KT 4000 HZ SCT017
WIII
15.6nm W
TAF WIII 202300Z 2100/2206 20010KT 5000 BR SCT020 BECMG 2100/2101 VRB05KT 8000 SCT020 BECMG 2103/2105 30008KT 8000 FEW020CB SCT020 PROB30 TEMPO 2107/2112 5000 TSRA FEW018CB BKN018 BECMG 2110/2112 20010KT 6000 TEMPO 2121/2124 5000 BR BECMG 2201/2203 VRB05KT 8000 SCT020
Safelog

 

Dauntless Aviation

© 2007-2014 Dauntless Aviation, all rights reserved
Information provided via PilotNav comes from a variety of official and unofficial data sources. As errors are possible, do not use PilotNav for primary flight planning purposes. Verify any information that you receive via PilotNav with current and canonical charts and other official documents. The material in this database is subject to database copyrights held by Dauntless Aviation and may not be copied without the express permission of Dauntless Aviation - licenses for use of part of all of this data are available for purchase; enquire via the Dauntless Aviation helpdesk. A number of mechanisms and markers exist in the database to protect against and identify infringement / copyright. Automated queries against this website are stictly prohibited, and all activity is logged and analyzed.